SCP
0 0 0 0 0 0 0 0 0 0 0 0 0 0 0 0 0 1 1 1 1 2 1 1 1 1 1 1 1 1 1 1 1 1 1 1 0 0 0 0 0 0 0 0
0 0 0 0 0 0 0 0 0 0 0 0 0 0 0 0 0 0 1 1 1 1 1 1 1 1 1 1 1 1 1 1 1 1 1 1 0 0 0 0 0 0 0 0
0 0 0 0 0 0 0 0 0 0 0 0 0 0 0 0 0 0 1 1 1 1 1 1 1 1 1 1 1 1 1 1 1 1 1 1 1 0 0 0 0 0 0 0
0 0 0 0 0 0 0 0 0 0 0 0 0 0 0 0 1 1 1 1 2 2 2 2 1 1 1 1 1 1 1 1 1 1 1 1 1 1 0 0 0 0 0 0
0 0 0 0 0 0 0 0 0 0 0 0 0 0 0 1 1 1 1 1 2 2 2 2 1 1 1 1 1 1 1 1 1 2 2 1 1 1 1 1 0 0 0 0
0 0 0 0 0 0 0 0 0 0 0 0 0 0 1 1 1 1 1 1 1 2 2 2 2 2 2 2 2 1 1 1 2 2 2 2 2 1 1 1 0 0 0 0
0 0 0 0 0 0 0 0 0 0 0 0 0 0 1 1 1 1 1 1 1 1 1 2 2 2 2 2 2 2 2 2 2 2 3 2 2 2 1 1 1 0 0 0
0 0 0 0 0 0 0 0 0 0 0 0 0 0 1 1 0 0 1 1 1 1 1 2 2 2 2 2 3 2 2 2 3 3 3 3 2 2 2 1 1 1 1 1
0 0 0 0 0 0 0 0 0 0 0 0 0 0 0 0 0 0 1 1 1 1 1 2 2 2 2 3 3 3 3 3 3 3 3 3 2 2 2 2 1 1 1 1
0 0 0 0 0 0 0 0 0 0 0 0 0 0 0 0 0 0 0 1 1 1 1 2 3 3 3 3 3 3 3 3 3 3 3 3 3 3 2 2 1 1 1 1
0 0 0 0 0 0 0 0 0 0 0 0 0 0 0 0 0 1 1 1 1 1 1 2 3 3 3 3 3 2 3 3 3 3 3 3 3 3 3 2 1 1 1 1
0 0 0 0 0 0 0 0 0 0 0 0 0 0 0 1 1 1 1 1 1 1 2 2 3 3 3 3 3 3 3 3 3 2 3 3 3 3 3 2 1 1 1 1
0 0 0 0 0 0 0 0 0 0 0 0 0 0 0 1 1 1 1 1 2 2 2 3 3 3 3 3 3 3 3 3 3 2 2 3 3 4 4 3 2 1 1 1
0 0 0 0 0 0 0 0 0 0 0 0 0 0 0 1 1 1 1 1 2 2 2 3 3 3 3 2 2 2 3 3 2 2 2 2 3 4 4 4 2 1 1 1
0 0 0 0 0 0 0 0 0 0 0 0 0 0 0 1 1 1 1 1 2 2 2 2 2 2 2 1 1 2 2 2 2 2 2 2 3 4 4 4 3 2 1 1
0 0 0 0 0 0 0 0 0 0 0 0 0 0 0 1 1 1 1 1 1 1 1 1 1 1 1 1 1 1 2 2 2 2 2 3 3 3 4 4 3 2 1 1
0 0 0 0 0 0 0 0 0 0 0 0 0 0 1 1 1 1 1 1 1 1 1 1 1 1 1 1 2 2 2 2 2 2 2 3 4 4 5 5 3 2 1 1
0 0 0 0 0 0 0 0 0 0 0 0 0 0 0 1 1 1 1 0 0 1 1 1 1 1 1 2 2 2 2 2 2 2 2 3 4 5 6 5 3 2 1 1
0 0 0 0 0 0 0 0 0 0 0 0 0 0 0 1 1 1 1 1 1 1 1 1 0 1 1 2 2 2 2 2 2 2 3 3 4 5 6 5 3 2 2 1
0 0 0 0 0 0 0 0 0 0 0 0 0 0 0 0 0 1 1 2 1 1 1 1 0 0 1 2 2 2 1 1 2 3 3 3 4 5 5 5 4 2 2 1
0 0 0 0 0 0 0 0 0 0 0 0 0 0 0 0 0 0 1 2 2 2 1 1 1 0 1 2 2 2 1 2 3 4 4 4 4 4 5 6 4 2 1 1
0 0 0 0 0 0 0 0 0 0 0 0 0 0 0 0 0 0 0 1 2 2 2 1 1 1 1 2 2 2 2 3 4 5 5 5 4 4 5 6 4 2 1 0
0 0 0 0 0 0 0 0 0 0 0 0 0 0 0 0 0 0 0 0 1 1 1 1 1 2 2 2 2 2 2 4 5 5 5 5 4 4 5 5 3 1 0 0
0 0 0 0 0 0 0 0 0 0 0 0 0 0 0 0 0 0 0 0 0 0 1 1 1 2 2 2 2 2 3 4 5 5 5 4 3 4 4 4 3 1 0 0
0 0 0 0 0 0 0 0 0 0 0 0 0 0 0 0 0 0 0 0 0 0 1 1 1 1 1 1 2 2 3 4 4 4 4 3 3 3 4 3 2 1 0 0
0 0 0 0 0 0 0 0 0 0 0 0 0 0 0 0 0 0 0 0 0 0 1 1 1 1 1 1 2 2 3 4 4 4 3 2 3 3 3 3 1 0 0 0
Wind_Speed
7 6 5 5 5 6 5 5 5 2 2 4 5 5 7 7 7 7 6 7 7 8 9 8 7 7 6 5 5 6 5 4 3 2 2 2 2 2 2 2 2 3 3 3
6 6 5 5 5 6 7 6 5 3 3 4 5 5 6 7 7 5 6 6 7 7 9 8 7 7 6 5 5 5 5 5 4 3 2 2 2 2 2 1 2 2 3 3
7 4 4 6 6 7 7 6 6 5 3 6 6 5 6 7 6 6 5 4 6 8 9 9 8 7 6 5 5 4 5 5 5 4 2 2 2 1 1 1 1 1 2 2
6 6 5 6 7 6 6 4 6 7 6 5 7 5 6 7 8 7 6 5 5 6 7 8 7 7 7 6 5 5 5 5 5 5 3 3 2 2 2 2 1 1 1 2
6 6 6 7 6 6 6 5 7 8 8 8 9 6 4 6 7 7 7 6 6 6 7 7 7 7 7 7 5 4 4 4 4 4 4 3 2 2 1 2 2 1 1 1
9 7 6 6 6 6 6 8 9 9 7 8 9 7 3 4 6 7 7 7 7 7 6 6 6 5 5 5 5 4 4 3 3 3 4 3 3 2 3 2 2 1 1 1
9 9 6 5 5 5 6 6 4 4 6 6 5 4 2 3 3 5 6 5 6 7 6 6 6 5 5 5 4 4 4 3 3 2 3 3 3 2 3 3 2 2 1 1
7 6 6 5 5 5 6 6 4 4 4 3 3 2 4 5 5 5 5 5 5 6 6 6 7 6 5 5 4 3 3 3 3 2 2 2 3 2 1 2 2 2 1 1
5 4 4 5 5 7 7 7 8 8 9 7 2 4 5 5 6 5 4 5 5 5 6 7 7 6 6 5 4 4 4 3 2 1 1 2 2 2 2 2 1 1 1 1
7 7 5 5 5 8 8 7 5 5 5 5 4 2 3 6 6 5 5 5 5 5 5 7 6 6 6 5 4 4 4 3 2 2 2 2 2 2 2 1 1 1 1 2
8 8 5 6 7 6 7 7 6 5 5 4 4 1 2 5 5 4 4 4 4 5 5 6 5 5 5 5 5 4 3 2 2 1 2 2 2 2 2 2 1 1 1 1
5 6 8 7 5 5 6 7 6 4 5 5 4 1 4 5 5 4 4 3 4 4 5 5 5 5 5 5 5 4 3 3 2 1 2 2 2 2 2 1 1 1 1 1
4 5 7 5 4 5 6 6 5 6 5 5 5 1 3 5 5 4 4 3 3 4 5 5 5 4 4 4 4 4 3 3 3 2 2 2 1 1 1 1 1 1 1 1
3 7 8 7 4 3 5 6 6 6 5 6 5 1 2 3 3 3 2 3 3 4 4 4 4 3 3 3 3 3 3 3 3 3 2 2 1 1 1 1 1 1 1 1
4 8 10 10 8 7 6 7 7 7 7 7 5 3 1 2 2 2 2 2 3 4 3 3 2 2 2 2 2 2 3 3 3 3 3 2 2 1 0 1 0 1 1 1
6 8 10 10 8 7 7 7 7 7 7 7 6 5 3 3 3 2 2 2 2 2 2 1 2 2 2 2 2 2 2 2 3 3 2 2 2 1 1 1 1 1 1 1
5 8 9 8 6 7 6 4 5 4 3 5 5 2 2 2 2 2 1 2 1 2 1 1 1 0 1 1 1 1 2 2 2 2 2 1 2 2 1 1 1 1 0 1
7 8 6 7 8 8 1 2 1 0 2 4 3 3 2 2 2 2 3 2 2 2 1 1 0 0 0 0 0 1 2 2 2 2 2 2 1 1 1 1 1 1 0 1
5 6 5 5 6 5 1 1 1 2 1 2 2 2 3 3 2 1 3 3 2 2 2 1 1 1 1 1 1 1 2 2 2 2 2 2 2 2 1 1 1 1 1 1
5 6 6 6 6 5 2 3 3 2 1 3 3 2 3 3 2 2 4 3 3 3 2 2 1 1 1 1 1 1 2 2 2 1 1 1 1 1 2 2 1 1 1 1
5 6 6 6 6 2 2 2 1 1 2 3 2 3 3 2 2 2 3 3 3 2 2 2 2 1 1 1 1 1 1 2 1 1 1 1 2 2 2 1 1 1 1 1
4 3 4 4 5 2 2 1 1 2 3 4 4 4 4 4 4 3 3 2 2 2 2 2 2 1 1 1 1 1 1 1 1 1 2 2 2 2 2 2 1 1 1 1
3 2 1 2 0 3 3 3 4 4 4 4 3 3 3 3 4 3 3 3 3 2 2 2 2 1 1 2 1 1 1 2 2 2 1 1 2 1 2 2 2 1 1 1
2 2 3 3 2 2 2 2 3 3 3 4 3 3 2 3 3 2 2 2 2 2 2 2 2 2 1 1 2 1 2 2 2 2 1 1 1 1 1 1 1 1 1 1
4 3 4 4 2 0 1 1 1 1 2 2 3 3 2 3 2 1 1 1 1 1 1 1 1 1 1 1 1 1 1 2 2 1 1 1 1 1 1 1 1 1 1 2
5 5 4 2 2 2 1 1 2 1 1 2 3 3 3 2 0 0 0 0 0 0 1 1 1 1 1 1 1 1 1 1 1 1 1 1 1 1 1 1 2 3 2 2
Wind_Direction
220 225 235 229 238 265 279 280 276 244 191 225 232 209 192 184 194 194 186 180 172 168 156 154 152 150 150 148 144 138 136 128 118 106 102 99 92 82 72 63 52 48 52 47
232 233 238 250 254 261 267 270 262 240 230 250 239 227 199 191 194 192 188 179 169 165 155 155 158 159 158 151 149 145 142 134 125 118 117 120 110 102 101 71 41 45 55 48
242 241 236 257 262 260 261 265 278 274 249 251 252 238 209 189 185 186 188 176 165 169 167 163 163 161 155 154 154 146 142 137 132 131 125 118 101 98 99 113 71 44 58 53
247 243 246 256 261 266 271 267 269 273 265 253 244 245 207 189 180 182 181 175 170 172 163 160 163 162 158 157 155 155 146 146 143 137 140 143 148 158 158 147 137 112 91 78
252 251 247 254 261 266 274 290 275 265 265 265 256 254 205 179 179 181 182 179 171 164 158 158 160 163 162 156 156 157 148 139 136 144 150 152 153 146 135 122 112 115 100 94
252 248 245 252 250 254 268 266 260 254 257 255 245 241 219 186 189 179 176 174 166 159 154 150 144 139 136 133 137 138 131 130 136 153 149 154 151 144 126 115 124 121 90 58
242 228 208 226 250 233 247 262 260 232 224 237 229 222 147 115 126 144 155 157 154 148 147 145 139 134 129 120 125 134 137 137 132 139 138 141 137 143 137 140 139 138 132 101
251 228 193 198 244 254 245 246 262 277 277 276 239 180 121 116 100 101 124 136 145 145 146 148 141 138 138 131 127 120 125 127 133 149 160 146 131 126 128 137 139 148 148 135
274 243 190 204 235 252 252 244 260 272 283 282 218 147 143 132 127 124 128 134 144 146 149 146 138 142 142 139 137 132 122 115 124 132 125 119 127 124 119 116 112 128 122 108
287 276 225 197 226 236 254 272 271 265 279 280 271 199 164 153 146 147 144 140 140 143 143 141 142 147 146 143 142 134 129 135 139 142 130 97 80 77 85 102 104 101 106 104
274 273 245 200 213 231 231 249 258 262 263 276 285 33 81 135 134 136 130 128 139 144 143 143 143 144 143 142 143 138 137 136 120 104 97 97 94 77 59 52 53 65 78 107
264 276 266 235 204 231 251 252 257 263 276 286 288 84 62 86 94 96 107 108 124 135 132 129 135 142 141 142 143 141 140 135 128 109 105 106 97 100 97 76 48 44 33 39
302 268 268 225 187 206 244 251 254 270 274 271 274 142 95 89 87 92 98 105 120 126 128 127 127 138 137 139 142 143 140 139 135 122 106 93 93 96 97 103 86 66 59 53
283 260 265 272 275 236 247 260 257 256 263 273 276 230 143 109 95 88 102 123 119 113 115 120 124 123 137 145 141 142 142 151 151 145 138 131 117 95 93 69 75 71 58 84
257 265 272 274 277 265 255 257 259 261 268 275 290 292 310 104 104 76 57 85 102 115 111 117 120 131 131 143 147 150 159 160 160 154 144 142 135 121 112 104 51 57 39 42
253 270 277 274 266 266 261 252 245 252 264 273 286 297 18 36 46 43 52 69 79 95 100 114 133 144 163 159 159 170 161 161 154 146 143 150 146 146 201 144 98 61 56 39
254 266 277 274 265 258 253 266 254 252 273 273 274 303 37 12 13 27 33 61 99 93 68 96 109 125 162 166 173 180 164 145 142 134 134 143 147 156 190 154 120 118 111 63
265 270 272 274 271 258 223 40 56 303 337 349 12 32 14 359 13 44 33 48 58 76 77 69 98 123 118 117 73 135 141 130 148 154 154 152 153 169 182 151 159 161 159 114
259 262 266 268 270 259 193 63 321 271 271 0 11 20 5 349 337 37 39 60 65 73 75 81 54 47 111 110 108 125 153 150 160 154 161 167 170 172 163 170 183 180 174 196
252 250 255 261 265 268 46 38 11 321 245 29 21 11 0 351 313 348 19 38 52 60 72 63 49 51 75 110 129 164 183 167 165 153 144 146 163 172 176 187 187 188 176 194
228 236 243 258 263 265 48 24 10 272 5 26 21 24 17 350 335 340 13 31 44 57 66 64 55 55 41 104 138 177 174 167 146 127 131 141 165 184 169 162 162 169 174 189
241 248 248 254 254 253 58 44 51 33 35 36 29 27 8 359 359 6 29 33 55 60 67 78 67 46 42 80 112 120 126 130 110 109 132 146 154 170 152 157 170 175 186 206
249 259 280 270 35 59 58 54 38 33 30 24 19 11 359 355 351 19 30 31 38 51 63 76 85 60 45 47 74 100 102 109 116 122 119 142 150 141 147 167 177 180 195 208
255 278 267 266 182 137 94 66 38 22 16 5 358 356 354 354 351 20 32 31 33 40 49 75 96 94 69 41 43 73 105 108 116 135 135 123 121 122 127 132 148 162 193 211
312 300 274 266 267 285 105 43 16 353 354 351 347 352 349 349 5 23 10 31 38 37 61 81 114 127 110 81 52 51 83 122 127 126 123 110 94 107 109 98 79 154 190 191
273 275 271 279 318 304 292 2 341 333 2 349 335 337 343 337 3 86 144 109 70 56 94 104 124 123 128 116 103 72 41 113 135 126 116 99 93 88 95 102 60 31 61 102